• En España
  • Lista de países
  • Para 7 días
  • Temperatura del agua
  • Mapa Satelital
  • El tiempo en el mapa
  • Informadores
  • user-avatar
    Iniciar sesión

    Tiempo cada hora Berdibyakovo

    Hoy, 21 Agosto, Martes

    Tiempo Temperatura Precipitaciones Viento Presión Humedad
    00:00 +17°C° 0,1 mm 2 mps 751 mmHg 88%
    01:00 +16°C° 0,1 mm 2 mps 750 mmHg 90%
    02:00 +16°C° 0,1 mm 2 mps 750 mmHg 92%
    03:00 +17°C° 0 mm 2 mps 750 mmHg 94%
    04:00 +17°C° 0 mm 2 mps 750 mmHg 93%
    05:00 +17°C° 0 mm 2 mps 750 mmHg 92%
    06:00 +18°C° 0 mm 2 mps 750 mmHg 91%
    07:00 +19°C° 0,1 mm 2 mps 750 mmHg 87%
    08:00 +20°C° 0,1 mm 2 mps 750 mmHg 82%
    09:00 +22°C° 0,1 mm 3 mps 750 mmHg 77%
    10:00 +24°C° 0,2 mm 3 mps 750 mmHg 73%
    11:00 +25°C° 0,2 mm 3 mps 749 mmHg 69%
    12:00 +25°C° 0,2 mm 4 mps 749 mmHg 65%
    13:00 +26°C° 0,1 mm 4 mps 749 mmHg 64%
    14:00 +26°C° 0,1 mm 4 mps 749 mmHg 63%
    15:00 +27°C° 0,1 mm 5 mps 748 mmHg 62%
    16:00 +26°C° 0,2 mm 4 mps 748 mmHg 67%
    17:00 +25°C° 0,2 mm 4 mps 748 mmHg 72%
    18:00 +22°C° 0,2 mm 3 mps 747 mmHg 77%
    19:00 +21°C° 0 mm 3 mps 747 mmHg 79%
    20:00 +20°C° 0 mm 4 mps 747 mmHg 81%
    21:00 +19°C° 0 mm 4 mps 747 mmHg 83%
    22:00 +19°C° 0 mm 4 mps 746 mmHg 81%
    23:00 +19°C° 0 mm 5 mps 746 mmHg 79%

    Mañana, 22 Agosto, Miércoles

    Tiempo Temperatura Precipitaciones Viento Presión Humedad
    00:00 +19°C° 0 mm 5 mps 746 mmHg 77%
    01:00 +17°C° 0 mm 5 mps 745 mmHg 76%
    02:00 +17°C° 0 mm 5 mps 745 mmHg 75%
    03:00 +16°C° 0 mm 5 mps 745 mmHg 73%
    04:00 +16°C° 0,1 mm 5 mps 745 mmHg 74%
    05:00 +16°C° 0,1 mm 5 mps 745 mmHg 74%
    06:00 +16°C° 0,1 mm 5 mps 745 mmHg 75%
    07:00 +16°C° 0,9 mm 5 mps 745 mmHg 79%
    08:00 +17°C° 0,9 mm 4 mps 745 mmHg 84%
    09:00 +17°C° 0,9 mm 4 mps 745 mmHg 89%
    10:00 +15°C° 0,9 mm 4 mps 745 mmHg 90%
    11:00 +15°C° 0,9 mm 4 mps 745 mmHg 91%
    12:00 +16°C° 0,9 mm 3 mps 746 mmHg 91%
    13:00 +16°C° 0,5 mm 3 mps 746 mmHg 85%
    14:00 +17°C° 0,5 mm 2 mps 746 mmHg 79%
    15:00 +18°C° 0,5 mm 2 mps 746 mmHg 72%
    16:00 +17°C° 0,3 mm 2 mps 746 mmHg 75%
    17:00 +17°C° 0,3 mm 2 mps 747 mmHg 78%
    18:00 +16°C° 0,3 mm 3 mps 747 mmHg 80%
    19:00 +14°C° 0,3 mm 3 mps 747 mmHg 83%
    20:00 +13°C° 0,3 mm 3 mps 748 mmHg 86%
    21:00 +12°C° 0,3 mm 3 mps 748 mmHg 89%
    22:00 +12°C° 0,3 mm 3 mps 748 mmHg 90%
    23:00 +11°C° 0,3 mm 3 mps 749 mmHg 91%

    Pasado mañana, 23 Agosto, Jueves

    Tiempo Temperatura Precipitaciones Viento Presión Humedad
    00:00 +11°C° 0,3 mm 4 mps 749 mmHg 92%
    01:00 +10°C° 0 mm 4 mps 749 mmHg 92%
    02:00 +10°C° 0 mm 4 mps 750 mmHg 93%
    03:00 +8°C° 0 mm 4 mps 750 mmHg 94%
    04:00 +10°C° 0 mm 4 mps 751 mmHg 93%
    05:00 +10°C° 0 mm 4 mps 751 mmHg 92%
    06:00 +9°C° 0 mm 5 mps 752 mmHg 91%
    07:00 +10°C° 0 mm 5 mps 752 mmHg 85%
    08:00 +11°C° 0 mm 6 mps 752 mmHg 78%
    09:00 +13°C° 0 mm 6 mps 753 mmHg 72%
    10:00 +14°C° 0 mm 6 mps 753 mmHg 67%
    11:00 +14°C° 0 mm 6 mps 753 mmHg 62%
    12:00 +15°C° 0 mm 6 mps 753 mmHg 57%
    13:00 +15°C° 0 mm 6 mps 753 mmHg 57%
    14:00 +16°C° 0 mm 6 mps 753 mmHg 57%
    15:00 +16°C° 0 mm 6 mps 753 mmHg 57%
    16:00 +15°C° 0 mm 5 mps 754 mmHg 61%
    17:00 +14°C° 0 mm 5 mps 754 mmHg 65%
    18:00 +14°C° 0 mm 4 mps 754 mmHg 69%
    19:00 +13°C° 0 mm 4 mps 754 mmHg 70%
    20:00 +12°C° 0 mm 3 mps 754 mmHg 71%
    21:00 +11°C° 0 mm 3 mps 754 mmHg 73%
    22:00 +11°C° 0 mm 3 mps 755 mmHg 74%
    23:00 +10°C° 0 mm 3 mps 755 mmHg 75%

    24 Agosto, Viernes

    Tiempo Temperatura Precipitaciones Viento Presión Humedad
    00:00 +10°C° 0 mm 3 mps 755 mmHg 76%
    01:00 +10°C° 0 mm 3 mps 755 mmHg 75%
    02:00 +10°C° 0 mm 3 mps 755 mmHg 74%
    03:00 +10°C° 0 mm 3 mps 755 mmHg 74%
    04:00 +10°C° 0,2 mm 3 mps 755 mmHg 77%
    05:00 +10°C° 0,2 mm 3 mps 755 mmHg 80%
    06:00 +10°C° 0,2 mm 3 mps 755 mmHg 83%
    07:00 +11°C° 0,3 mm 3 mps 755 mmHg 85%
    08:00 +11°C° 0,3 mm 4 mps 755 mmHg 86%
    09:00 +12°C° 0,3 mm 4 mps 755 mmHg 87%
    10:00 +13°C° 0 mm 4 mps 754 mmHg 84%
    11:00 +14°C° 0 mm 5 mps 754 mmHg 81%
    12:00 +16°C° 0 mm 5 mps 754 mmHg 79%
    13:00 +16°C° 0 mm 5 mps 754 mmHg 78%
    14:00 +16°C° 0 mm 5 mps 754 mmHg 78%
    15:00 +17°C° 0 mm 5 mps 754 mmHg 77%
    16:00 +17°C° 0 mm 4 mps 754 mmHg 80%
    17:00 +17°C° 0 mm 4 mps 754 mmHg 82%
    18:00 +17°C° 0 mm 3 mps 754 mmHg 85%
    19:00 +16°C° 0 mm 3 mps 754 mmHg 88%
    20:00 +14°C° 0 mm 3 mps 755 mmHg 91%
    21:00 +14°C° 0 mm 2 mps 755 mmHg 93%
    22:00 +14°C° 0 mm 2 mps 755 mmHg 94%
    23:00 +13°C° 0 mm 2 mps 755 mmHg 94%

    25 Agosto, Sábado

    Tiempo Temperatura Precipitaciones Viento Presión Humedad
    00:00 +13°C° 0 mm 2 mps 756 mmHg 94%
    01:00 +13°C° 0 mm 2 mps 756 mmHg 94%
    02:00 +12°C° 0 mm 2 mps 756 mmHg 94%
    03:00 +12°C° 0 mm 2 mps 756 mmHg 95%
    04:00 +13°C° 0 mm 2 mps 756 mmHg 94%
    05:00 +13°C° 0 mm 2 mps 756 mmHg 93%
    06:00 +13°C° 0 mm 2 mps 757 mmHg 93%
    07:00 +15°C° 0 mm 2 mps 757 mmHg 86%
    08:00 +17°C° 0 mm 2 mps 757 mmHg 79%
    09:00 +19°C° 0 mm 2 mps 757 mmHg 72%
    10:00 +20°C° 0 mm 2 mps 757 mmHg 68%
    11:00 +21°C° 0 mm 2 mps 757 mmHg 64%
    12:00 +23°C° 0 mm 2 mps 757 mmHg 60%
    13:00 +23°C° 0 mm 2 mps 757 mmHg 61%
    14:00 +24°C° 0 mm 3 mps 757 mmHg 62%
    15:00 +24°C° 0 mm 3 mps 757 mmHg 63%
    16:00 +23°C° 0 mm 2 mps 757 mmHg 68%
    17:00 +21°C° 0 mm 2 mps 757 mmHg 73%
    18:00 +21°C° 0 mm 1 mps 757 mmHg 78%
    19:00 +20°C° 0 mm 1 mps 757 mmHg 81%
    20:00 +19°C° 0 mm 1 mps 757 mmHg 84%
    21:00 +18°C° 0 mm 1 mps 757 mmHg 87%
    22:00 +18°C° 0 mm 1 mps 757 mmHg 88%
    23:00 +16°C° 0 mm 1 mps 757 mmHg 89%

    26 Agosto, Domingo

    Tiempo Temperatura Precipitaciones Viento Presión Humedad
    00:00 +16°C° 0 mm 1 mps 757 mmHg 89%
    01:00 +16°C° 0 mm 1 mps 757 mmHg 90%
    02:00 +16°C° 0 mm 1 mps 757 mmHg 90%
    03:00 +16°C° 0 mm 1 mps 758 mmHg 91%
    04:00 +16°C° 0 mm 1 mps 758 mmHg 90%
    05:00 +16°C° 0 mm 1 mps 758 mmHg 90%
    06:00 +18°C° 0 mm 1 mps 758 mmHg 90%
    07:00 +19°C° 0 mm 1 mps 758 mmHg 84%
    08:00 +21°C° 0 mm 1 mps 758 mmHg 78%
    09:00 +23°C° 0 mm 2 mps 758 mmHg 73%
    10:00 +24°C° 0 mm 2 mps 758 mmHg 69%
    11:00 +24°C° 0 mm 2 mps 758 mmHg 66%
    12:00 +25°C° 0 mm 2 mps 758 mmHg 62%
    13:00 +26°C° 0,1 mm 2 mps 758 mmHg 62%
    14:00 +26°C° 0,1 mm 2 mps 757 mmHg 61%
    15:00 +26°C° 0,1 mm 2 mps 757 mmHg 61%
    16:00 +25°C° 0,1 mm 2 mps 757 mmHg 66%
    17:00 +24°C° 0,1 mm 2 mps 757 mmHg 71%
    18:00 +23°C° 0,1 mm 2 mps 757 mmHg 77%
    19:00 +21°C° 0 mm 2 mps 757 mmHg 80%
    20:00 +20°C° 0 mm 2 mps 757 mmHg 83%
    21:00 +18°C° 0 mm 2 mps 757 mmHg 86%
    22:00 +18°C° 0 mm 2 mps 757 mmHg 87%
    23:00 +18°C° 0 mm 2 mps 758 mmHg 88%
    Mostrar más